This is the latest recevied weather packets stored in our database for station/object KA3BQE-13. If no packets are shown the sender has not sent any weather packets the latest 10 day(s).
| Time | Temp. | Humidity | Pressure | Rain* | Wind** | Luminosity | Snow |
|---|---|---|---|---|---|---|---|
| 1777414737 | 16.11° C | 73% | 1015.8 hPa | 0 mm | - | 204 W/m² | - |
| 1777414435 | 16.11° C | 73% | 1015.9 hPa | 0 mm | - | 255 W/m² | - |
| 1777414134 | 15.56° C | 76% | 1015.9 hPa | 0 mm | - | 280 W/m² | - |
| 1777413829 | 15.56° C | 74% | 1016.1 hPa | 0 mm | - | 233 W/m² | - |
| 1777413525 | 15.56° C | 75% | 1015.9 hPa | 0 mm | - | 196 W/m² | - |
| 1777413221 | 15.56° C | 75% | 1016 hPa | 0 mm | - | 165 W/m² | - |
| 1777412917 | 15.56° C | 73% | 1016.2 hPa | 0 mm | - | 156 W/m² | - |
| 1777412616 | 16.11° C | 74% | 1016 hPa | 0 mm | - | 198 W/m² | - |
| 1777412313 | 15.56° C | 73% | 1016.2 hPa | 0 mm | - | 139 W/m² | - |
| 1777412009 | 15.56° C | 72% | 1016 hPa | 0 mm | - | 173 W/m² | - |
| 1777411708 | 16.11° C | 71% | 1015.9 hPa | 0 mm | - | 197 W/m² | - |
| 1777411404 | 16.11° C | 75% | 1015.7 hPa | 0 mm | - | 204 W/m² | - |
| 1777411103 | 16.11° C | 73% | 1015.6 hPa | 0 mm | - | 169 W/m² | - |
| 1777410798 | 16.67° C | 70% | 1015.9 hPa | 0 mm | - | 200 W/m² | - |
| 1777410497 | 16.67° C | 68% | 1015.7 hPa | 0 mm | - | 342 W/m² | - |
| 1777410197 | 17.22° C | 63% | 1015.7 hPa | 0 mm | - | 402 W/m² | - |
| 1777409892 | 17.78° C | 67% | 1016 hPa | 0 mm | - | 543 W/m² | - |
| 1777409588 | 16.67° C | 68% | 1015.9 hPa | 0 mm | - | 520 W/m² | - |
| 1777409283 | 17.22° C | 67% | 1015.8 hPa | 0 mm | - | 357 W/m² | - |
| 1777408980 | 16.67° C | 66% | 1015.9 hPa | 0 mm | - | 404 W/m² | - |
| 1777408676 | 17.22° C | 66% | 1016 hPa | 0 mm | - | 664 W/m² | - |
| 1777408372 | 17.22° C | 69% | 1015.9 hPa | 0 mm | - | 740 W/m² | - |
| 1777408071 | 17.78° C | 66% | 1016 hPa | 0 mm | - | 586 W/m² | - |
| 1777407768 | 17.22° C | 67% | 1016.2 hPa | 0 mm | - | 578 W/m² | - |
| 1777407463 | 16.67° C | 66% | 1016.3 hPa | 0 mm | - | 597 W/m² | - |
* Rain latest hour (hover to see other rain measurements)
** Current wind speed in m/s (hover to see current wind gust speed)